Location: Walnut Point State Park
(39.6958°N, 88.0345°W)
Time: 12:11:58
(UTC-06:00)

Amateur Radio Satellites - All Passes

Search period start: 20 January 2017 11:41
Search period end: 21 January 2017 11:41
Location: Walnut Point State Park, 39.6958°N, 88.0345°W

Satellite Date Start Highest point End Downlink Frequencies (MHz)
Time Altitude Azimuth
CUBEBUG 1 20 Jan 11:48:00 11:52:21 89° 100° (E) 11:56:40 437.445
DUCHIFAT 1 20 Jan 11:49:13 11:52:26 21° 265° (W) 11:55:39 145.980
Gurwin Techsat 1B 20 Jan 11:54:35 11:58:35 22° 64° (ENE) 12:02:34 435.225
NANOSAT C BR1 20 Jan 11:55:14 11:58:00 17° 267° (W) 12:00:48 145.865
AISAT 20 Jan 12:04:05 12:08:29 85° 101° (E) 12:12:52 437.250
Cosmos 2491 20 Jan 12:05:55 12:13:52 36° 72° (ENE) 12:21:47 435.465 / 435.565
AO-7 20 Jan 12:11:16 12:14:26 13° 45° (NE) 12:17:37 29.400- 29.500
YUBILEINY 20 Jan 12:15:15 12:19:54 16° 76° (ENE) 12:24:31 435.215
50 SAT 20 Jan 12:15:55 12:19:29 86° 284° (WNW) 12:23:01 437.505
BUGSAT 1 20 Jan 12:24:05 12:27:22 23° 264° (W) 12:30:38 437.445
ESTCUBE 1 20 Jan 12:26:40 12:30:09 22° 293° (WNW) 12:33:39 437.505/2401.250
VELOX 1 20 Jan 12:37:42 12:41:51 43° 288° (WNW) 12:46:00 145.980
CUSAT 1 20 Jan 12:37:45 12:44:09 26° 66° (ENE) 12:50:13 437.405
TISAT 1 20 Jan 12:59:33 13:03:19 32° 97° (E) 13:07:04 437.305
SPROUT 20 Jan 13:07:21 13:10:54 26° 291° (WNW) 13:14:27 437.525
UKube-1 20 Jan 13:09:09 13:13:22 56° 287° (WNW) 13:17:33 .
DX 1 20 Jan 13:10:04 13:14:08 40° 289° (WNW) 13:18:09 434.975-435.025
Oscar 19 20 Jan 13:19:47 13:24:25 33° 263° (W) 13:29:06 437.125/150
DANDE 20 Jan 13:26:25 13:32:26 23° 67° (ENE) 13:38:45 436.750
AO-85 20 Jan 13:28:33 13:33:18 69° 119° (ESE) 13:37:42 145.980
Cosmos 2504 20 Jan 13:28:41 13:35:33 27° 84° (E) 13:42:08 435.465 / 435.565
AIST 1 20 Jan 13:30:25 13:34:44 62° 95° (E) 13:39:03
Gurwin Techsat 1B 20 Jan 13:33:05 13:38:10 47° 260° (W) 13:43:18 435.225
BEESAT 20 Jan 13:38:42 13:41:56 18° 93° (E) 13:45:09 436.000
SWISSCUBE 20 Jan 13:40:03 13:43:38 21° 94° (E) 13:47:14 437.505
AO-7 20 Jan 13:57:18 14:05:24 57° 66° (ENE) 14:13:32 29.400- 29.500
ITAMSAT 1 20 Jan 14:01:55 14:07:01 68° 74° (ENE) 14:12:10 435.822/435.867
Cosmos 2491 20 Jan 14:02:34 14:10:51 48° 271° (W) 14:19:09 435.465 / 435.565
YUBILEINY 20 Jan 14:06:25 14:15:14 85° 95° (E) 14:24:08 435.215
CUSAT 1 20 Jan 14:18:48 14:26:45 70° 265° (W) 14:34:01 437.405
TISAT 1 20 Jan 14:35:41 14:38:43 20° 293° (WNW) 14:41:45 437.305
ITUPSAT 1 20 Jan 14:40:30 14:45:20 77° 102° (ESE) 14:50:08 437.325
BEESAT 3 20 Jan 14:45:55 14:46:49 11° 108° (ESE) 14:47:44 437.485
DANDE 20 Jan 15:07:54 15:15:46 80° 263° (W) 15:24:08 436.750
MOZHAYETS 4 20 Jan 15:10:20 15:14:52 49° 99° (E) 15:19:21
AO-85 20 Jan 15:11:18 15:14:05 16° 315° (NW) 15:16:45 145.980
AIST 1 20 Jan 15:11:33 15:12:45 11° 291° (WNW) 15:13:57
BRITE-PL 20 Jan 15:15:16 15:20:15 33° 69° (ENE) 15:25:11 437.365/2234.400
BEESAT 20 Jan 15:15:20 15:19:55 46° 289° (WNW) 15:24:29 436.000
SWISSCUBE 20 Jan 15:17:05 15:21:33 40° 290° (WNW) 15:26:00 437.505
Cosmos 2504 20 Jan 15:19:46 15:28:22 62° 281° (W) 15:36:30 435.465 / 435.565
GOMX 1 20 Jan 15:21:23 15:24:20 15° 64° (ENE) 15:27:12 467.674
O/OREOS (USA 219) 20 Jan 15:27:49 15:32:02 38° 63° (ENE) 15:36:15 437.305
BEESAT 2 20 Jan 15:29:24 15:31:36 14° 109° (ESE) 15:33:47 435.950
AUBIESAT-1 20 Jan 15:38:29 15:40:56 19° 100° (E) 15:43:21 437.475
ITAMSAT 1 20 Jan 15:44:25 15:46:57 14° 269° (W) 15:49:29 435.822/435.867
KKS-1 20 Jan 15:49:49 15:53:58 38° 99° (E) 15:58:05 437.445
AO-7 20 Jan 15:51:18 15:58:28 31° 263° (W) 16:05:43 29.400- 29.500
CUBESAT XI-V 20 Jan 15:56:48 16:00:32 23° 94° (E) 16:04:14 437.345
HORYU 2 20 Jan 15:56:53 16:00:48 32° 70° (ENE) 16:04:44 437.375
Cubesat XI-IV 20 Jan 15:58:20 16:01:12 15° 61° (ENE) 16:04:04 437.490
DOVE 4 20 Jan 16:00:49 16:03:02 13° 64° (ENE) 16:05:14 437.250
CUSAT 1 20 Jan 16:04:12 16:07:09 13° 283° (WNW) 16:10:02 437.405
NOAA 15 20 Jan 16:06:09 16:09:44 19° 63° (ENE) 16:13:20 137.62
YUBILEINY 20 Jan 16:07:04 16:13:10 20° 296° (WNW) 16:19:19 435.215
SO-50 20 Jan 16:17:37 16:22:06 61° 56° (NE) 16:26:30 436.795
BEESAT 3 20 Jan 16:20:03 16:23:53 58° 304° (NW) 16:27:47 437.485
ITUPSAT 1 20 Jan 16:20:40 16:22:30 12° 299° (WNW) 16:24:20 437.325
M-CUBED/EXP-1 PRIME 20 Jan 16:35:39 16:38:53 46° 291° (WNW) 16:42:00 437.505
LilacSat-2 20 Jan 16:39:32 16:42:46 28° 71° (ENE) 16:46:03 437.200
STARS 20 Jan 16:42:35 16:46:56 67° 101° (E) 16:51:17 437.465
MOZHAYETS 4 20 Jan 16:48:40 16:51:36 17° 295° (WNW) 16:54:32
CUTE-I 20 Jan 16:52:23 16:57:25 46° 70° (ENE) 17:02:28 437.470
DANDE 20 Jan 16:53:05 16:57:30 16° 279° (W) 17:02:03 436.750
BRITE-PL 20 Jan 16:53:24 16:58:35 35° 264° (W) 17:03:43 437.365/2234.400
GOMX 1 20 Jan 16:56:25 17:01:50 72° 259° (WSW) 17:07:03 467.674
BEESAT 2 20 Jan 17:05:10 17:08:57 45° 305° (NW) 17:12:49 435.950
O/OREOS (USA 219) 20 Jan 17:07:58 17:11:07 19° 259° (W) 17:14:17 437.305
AUBIESAT-1 20 Jan 17:12:47 17:15:19 20° 296° (WNW) 17:17:48 437.475
HO-68 20 Jan 17:19:33 17:25:05 25° 59° (ENE) 17:30:37 435.675
Cosmos 2504 20 Jan 17:21:26 17:23:24 11° 301° (WNW) 17:25:22 435.465 / 435.565
KKS-1 20 Jan 17:27:07 17:30:14 19° 294° (WNW) 17:33:20 437.445
CINEMA 3 20 Jan 17:27:17 17:30:34 21° 68° (ENE) 17:33:46 145.822/145.860
CUBESAT XI-V 20 Jan 17:33:44 17:37:56 34° 290° (WNW) 17:42:07 437.345
HORYU 2 20 Jan 17:33:59 17:37:22 22° 265° (W) 17:40:47 437.375
DOVE 4 20 Jan 17:35:11 17:40:13 71° 258° (WSW) 17:44:59 437.250
Cubesat XI-IV 20 Jan 17:35:20 17:40:38 73° 257° (WSW) 17:45:57 437.490
CANX-2 20 Jan 17:38:01 17:40:48 17° 66° (ENE) 17:43:36 2200.000
NOAA 18 20 Jan 17:40:44 17:46:13 73° 73° (ENE) 17:51:42 137.9125
Cosmos 2499 20 Jan 17:43:50 17:48:24 16° 80° (E) 17:52:50 435.465 / 435.565
NOAA 15 20 Jan 17:43:51 17:49:01 57° 259° (WSW) 17:54:16 137.62
SEEDS 20 Jan 17:49:36 17:51:36 13° 64° (ENE) 17:53:36 437.485
SO-50 20 Jan 17:59:52 18:02:00 13° 252° (WSW) 18:04:07 436.795
SRMSAT 20 Jan 18:01:19 18:02:18 10° 181° (S) 18:03:18 437.500
LilacSat-2 20 Jan 18:14:29 18:17:05 18° 266° (W) 18:19:42 437.200
CUBEBUG 2 20 Jan 18:21:12 18:23:59 18° 67° (ENE) 18:26:47 437.445
STARS 20 Jan 18:21:16 18:22:42 11° 298° (WNW) 18:24:08 437.465
CUTE-I 20 Jan 18:33:41 18:37:39 21° 266° (W) 18:41:38 437.470
CUTE 1.7 + AOD 2 20 Jan 18:42:43 18:46:57 79° 75° (ENE) 18:51:14 437.475
FUNcube-1 20 Jan 18:45:55 18:47:04 11° 63° (ENE) 18:48:14 145.935
UWE-3 20 Jan 18:48:39 18:51:52 22° 68° (ENE) 18:55:05 435.000/436.395/437.385
GONETS M04 20 Jan 18:54:32 19:02:30 43° 87° (E) 19:10:33
CINEMA 3 20 Jan 19:03:30 19:07:31 33° 263° (W) 19:11:25 145.822/145.860
AIST 2 20 Jan 19:04:26 19:08:29 63° 119° (ESE) 19:12:37 435.215
HO-68 20 Jan 19:05:03 19:12:11 66° 257° (WSW) 19:19:23 435.675
ZACube-1 20 Jan 19:06:57 19:10:04 21° 68° (ENE) 19:13:12 437.345
CANX-2 20 Jan 19:12:20 19:16:19 39° 262° (W) 19:20:21 2200.000
SEEDS 20 Jan 19:22:41 19:26:48 53° 260° (W) 19:30:59 437.485
STRAND 1 20 Jan 19:23:17 19:28:27 89° 94° (E) 19:33:36 437.568
NOAA 18 20 Jan 19:24:37 19:27:22 14° 269° (W) 19:30:08 137.9125
COMPASS 1 20 Jan 19:27:30 19:31:40 73° 259° (WSW) 19:35:54 437.405
Cosmos 2499 20 Jan 19:32:00 19:40:32 90° 91° (E) 19:48:26 435.465 / 435.565
AAUSAT CUBESAT 2 20 Jan 19:38:32 19:42:42 72° 259° (W) 19:46:53 437.432
Oscar 11 20 Jan 19:41:41 19:45:47 45° 73° (ENE) 19:49:56 145.826/435.025
CUBEBUG 2 20 Jan 19:56:30 20:00:21 35° 263° (W) 20:04:11 437.445
FUNcube-1 20 Jan 20:18:41 20:22:45 61° 260° (W) 20:26:52 145.935
UWE-3 20 Jan 20:24:38 20:28:11 27° 264° (W) 20:31:45 435.000/436.395/437.385
ZACube-1 20 Jan 20:42:34 20:46:11 29° 264° (W) 20:49:49 437.345
ISS 20 Jan 20:42:47 20:44:48 16° 130° (SE) 20:46:50 145.825
AIST 2 20 Jan 20:44:56 20:47:23 15° 317° (NW) 20:49:50 435.215
HUMSAT D 20 Jan 20:50:03 20:53:58 46° 73° (ENE) 20:57:57 437.325/437.525
GONETS M04 20 Jan 20:51:15 20:59:18 41° 287° (WNW) 21:07:26
DELFI C3 20 Jan 20:52:57 20:56:57 82° 258° (WSW) 21:01:00 145.870
PRISM 20 Jan 21:03:05 21:07:08 53° 101° (E) 21:11:07 437.425
STRAND 1 20 Jan 21:05:09 21:06:51 12° 301° (WNW) 21:08:33 437.568
RS-15 20 Jan 21:06:09 21:12:13 16° 95° (E) 21:18:22 29.354- 29.394
Oscar 11 20 Jan 21:19:40 21:22:08 15° 268° (W) 21:24:37 145.826/435.025
Cosmos 2499 20 Jan 21:29:28 21:34:35 17° 295° (WNW) 21:39:32 435.465 / 435.565
UNISAT 6 20 Jan 21:32:44 21:36:50 36° 98° (E) 21:41:01 437.425
BY70-1 20 Jan 21:45:05 21:47:56 42° 73° (ENE) 21:51:00 436.1900
TIGRISAT 20 Jan 21:45:50 21:50:07 46° 99° (E) 21:54:29 435.000
ESTCUBE 1 20 Jan 21:48:09 21:52:02 29° 69° (ENE) 21:55:57 437.505/2401.250
VELOX 1 20 Jan 21:59:36 22:01:56 14° 64° (ENE) 22:04:17 145.980
AO-85 20 Jan 22:01:01 22:04:44 40° 53° (NE) 22:08:25 145.980
ANTELSAT 20 Jan 22:01:03 22:05:30 74° 101° (ESE) 22:10:03 437.575/2403.000
ISS 20 Jan 22:17:48 22:20:59 52° 326° (NW) 22:24:11 145.825
SPROUT 20 Jan 22:24:45 22:27:37 18° 66° (ENE) 22:30:30 437.525
JAS-2 20 Jan 22:26:25 22:33:28 50° 99° (E) 22:40:58 435.910
HUMSAT D 20 Jan 22:27:55 22:29:50 13° 269° (W) 22:31:47 437.325/437.525
DX 1 20 Jan 22:30:21 22:32:43 15° 64° (ENE) 22:35:07 434.975-435.025
UKube-1 20 Jan 22:30:49 22:31:11 10° 61° (ENE) 22:31:34 .
PRISM 20 Jan 22:40:10 22:41:55 12° 297° (WNW) 22:43:40 437.425
CUBEBUG 1 20 Jan 22:42:38 22:46:59 65° 75° (ENE) 22:51:22 437.445
50 SAT 20 Jan 22:49:44 22:52:54 30° 71° (ENE) 22:56:05 437.505
QB50P1 20 Jan 22:55:56 22:59:30 26° 96° (E) 23:03:03 145.935-145.965
POLYITAN 1 20 Jan 23:00:06 23:03:50 29° 97° (E) 23:07:34 437.675
AISAT 20 Jan 23:00:07 23:04:32 67° 74° (ENE) 23:08:56 437.250
QB50P2 20 Jan 23:01:18 23:05:08 33° 98° (E) 23:08:57 145.880/145.840
PCSat 20 Jan 23:07:16 23:10:47 18° 105° (ESE) 23:14:19 145.827
UNISAT 6 20 Jan 23:10:01 23:13:19 21° 293° (WNW) 23:16:40 437.425
RS-15 20 Jan 23:10:36 23:22:19 73° 116° (ESE) 23:34:34 29.354- 29.394
POPSAT HIP 1 20 Jan 23:22:28 23:26:36 52° 100° (E) 23:30:44 437.405
TIGRISAT 20 Jan 23:23:39 23:26:26 17° 294° (WNW) 23:29:15 435.000
ESTCUBE 1 20 Jan 23:25:00 23:28:46 26° 264° (W) 23:32:35 437.505/2401.250
DUCHIFAT 1 20 Jan 23:32:42 23:36:51 59° 101° (E) 23:41:00 145.980
VELOX 1 20 Jan 23:33:33 23:37:55 55° 259° (W) 23:42:18 145.980
NANOSAT C BR1 20 Jan 23:38:27 23:42:41 78° 104° (ESE) 23:46:53 145.865
AIST 1 20 Jan 23:39:43 23:41:58 14° 70° (ENE) 23:44:13
ANTELSAT 20 Jan 23:40:27 23:41:37 11° 297° (WNW) 23:42:48 437.575/2403.000
AO-85 20 Jan 23:42:27 23:44:46 15° 250° (WSW) 23:47:04 145.980
TISAT 1 20 Jan 23:50:38 23:53:53 22° 68° (ENE) 23:57:09 437.305
ISS 20 Jan 23:56:15 23:58:03 14° 345° (NNW) 23:59:50 145.825
SPROUT 20 Jan 23:59:17 00:03:15 38° 262° (W) 00:07:13 437.525
UKube-1 21 Jan 00:02:16 00:06:34 76° 256° (WSW) 00:10:55 .
DX 1 21 Jan 00:04:12 00:08:28 52° 259° (W) 00:12:45 434.975-435.025
BUGSAT 1 21 Jan 00:05:31 00:09:26 47° 100° (E) 00:13:21 437.445
JAS-2 21 Jan 00:11:53 00:18:13 34° 294° (WNW) 00:24:57 435.910
YUBILEINY 21 Jan 00:18:04 00:26:16 41° 73° (ENE) 00:34:21 435.215
CUBEBUG 1 21 Jan 00:22:42 00:23:40 11° 270° (W) 00:24:38 437.445
50 SAT 21 Jan 00:24:07 00:26:10 15° 267° (W) 00:28:15 437.505
QB50P1 21 Jan 00:31:44 00:35:10 25° 291° (WNW) 00:38:36 145.935-145.965
POLYITAN 1 21 Jan 00:36:10 00:39:27 22° 292° (WNW) 00:42:44 437.675
BEESAT 3 21 Jan 00:37:33 00:41:31 57° 57° (ENE) 00:45:26 437.485
QB50P2 21 Jan 00:37:35 00:40:41 20° 293° (WNW) 00:43:49 145.880/145.840
AISAT 21 Jan 00:40:28 00:41:23 11° 270° (W) 00:42:20 437.250
BEESAT 21 Jan 00:44:29 00:47:52 20° 65° (ENE) 00:51:15 436.000
SWISSCUBE 21 Jan 00:45:49 00:49:29 23° 66° (ENE) 00:53:11 437.505
PCSat 21 Jan 00:48:19 00:53:39 60° 302° (WNW) 00:59:02 145.827
POPSAT HIP 1 21 Jan 00:59:52 01:01:55 13° 296° (WNW) 01:03:58 437.405
Cosmos 2491 21 Jan 01:06:07 01:14:06 42° 87° (E) 01:22:06 435.465 / 435.565
DUCHIFAT 1 21 Jan 01:10:27 01:12:01 12° 296° (WNW) 01:13:34 145.980
Cosmos 2504 21 Jan 01:14:03 01:21:03 44° 75° (ENE) 01:27:49 435.465 / 435.565
AIST 1 21 Jan 01:15:45 01:19:50 44° 267° (W) 01:23:52
BEESAT 2 21 Jan 01:23:23 01:27:27 78° 59° (ENE) 01:31:27 435.950
RS-15 21 Jan 01:24:54 01:35:54 39° 321° (NW) 01:47:17 29.354- 29.394
TISAT 1 21 Jan 01:25:45 01:29:22 28° 263° (W) 01:33:00 437.305
PHONESAT 2.4 21 Jan 01:28:42 01:30:48 34° 159° (SSE) 01:32:54 2401.200-2431.200
Oscar 19 21 Jan 01:31:26 01:36:39 87° 282° (WNW) 01:41:47 437.125/150
ISS 21 Jan 01:34:55 01:35:40 11° 5° (N) 01:36:24 145.825
CUSAT 1 21 Jan 01:39:30 01:42:48 17° 79° (E) 01:46:35 437.405
BUGSAT 1 21 Jan 01:42:25 01:44:24 13° 295° (WNW) 01:46:21 437.445
ITUPSAT 1 21 Jan 01:46:12 01:50:57 81° 75° (ENE) 01:55:44 437.325
M-CUBED/EXP-1 PRIME 21 Jan 01:47:31 01:50:03 15° 62° (ENE) 01:52:29 437.505
Gurwin Techsat 1B 21 Jan 01:49:46 01:55:06 74° 103° (ESE) 02:00:24 435.225
AO-7 21 Jan 02:01:40 02:06:51 17° 91° (E) 02:11:58 29.400- 29.500
MOZHAYETS 4 21 Jan 02:11:15 02:15:32 42° 72° (ENE) 02:19:53
YUBILEINY 21 Jan 02:14:55 02:23:02 43° 273° (W) 02:31:05 435.215
ITAMSAT 1 21 Jan 02:16:06 02:20:22 25° 95° (E) 02:24:37 435.822/435.867
BEESAT 3 21 Jan 02:17:13 02:18:36 12° 252° (WSW) 02:19:59 437.485
BEESAT 21 Jan 02:20:47 02:25:17 43° 261° (W) 02:29:51 436.000
AUBIESAT-1 21 Jan 02:22:26 02:26:05 28° 66° (ENE) 02:29:33 437.475
SWISSCUBE 21 Jan 02:22:39 02:27:02 37° 262° (W) 02:31:28 437.505
PCSat 21 Jan 02:36:43 02:38:12 11° 322° (NW) 02:39:42 145.827
KKS-1 21 Jan 02:47:00 02:50:57 33° 70° (ENE) 02:54:56 437.445
CUBESAT XI-V 21 Jan 02:59:27 03:02:59 22° 67° (ENE) 03:06:33 437.345
PHONESAT 2.4 21 Jan 03:02:28 03:04:43 71° 355° (N) 03:06:58 2401.200-2431.200
Cosmos 2491 21 Jan 03:02:51 03:10:53 41° 286° (WNW) 03:19:00 435.465 / 435.565
Cosmos 2504 21 Jan 03:07:56 03:14:06 30° 275° (W) 03:20:07 435.465 / 435.565
ISS 21 Jan 03:10:23 03:13:04 23° 25° (NNE) 03:15:44 145.825
Oscar 19 21 Jan 03:13:47 03:15:08 11° 301° (WNW) 03:16:29 437.125/150
CUSAT 1 21 Jan 03:18:37 03:23:38 63° 283° (WNW) 03:30:13 437.405
M-CUBED/EXP-1 PRIME 21 Jan 03:19:54 03:24:11 50° 255° (WSW) 03:28:13 437.505
AIST 2 21 Jan 03:26:33 03:30:25 33° 51° (NE) 03:34:15 435.215
Gurwin Techsat 1B 21 Jan 03:31:34 03:34:24 15° 299° (WNW) 03:37:13 435.225
STARS 21 Jan 03:38:06 03:42:20 53° 73° (ENE) 03:46:36 437.465
RS-15 21 Jan 03:44:48 03:53:24 21° 354° (N) 04:02:03 29.354- 29.394
MOZHAYETS 4 21 Jan 03:49:48 03:52:52 18° 267° (W) 03:55:59
AO-7 21 Jan 03:52:09 04:00:34 89° 287° (WNW) 04:08:55 29.400- 29.500
ITAMSAT 1 21 Jan 03:55:07 03:59:54 38° 291° (WNW) 04:04:40 435.822/435.867
AUBIESAT-1 21 Jan 03:56:55 04:00:25 24° 258° (WSW) 04:03:45 437.475
DANDE 21 Jan 04:16:30 04:20:14 56° 284° (WNW) 04:25:16 436.750
KKS-1 21 Jan 04:24:07 04:27:33 22° 265° (W) 04:31:00 437.445
CUBESAT XI-V 21 Jan 04:35:44 04:40:05 38° 262° (W) 04:44:30 437.345
PHONESAT 2.4 21 Jan 04:36:30 04:38:45 82° 192° (SSW) 04:41:01 2401.200-2431.200
ISS 21 Jan 04:46:33 04:49:41 48° 223° (SW) 04:52:50 145.825
BRITE-PL 21 Jan 04:59:21 05:04:15 88° 287° (WNW) 05:08:43 437.365/2234.400
GOMX 1 21 Jan 05:00:02 05:04:00 33° 96° (E) 05:07:48 467.674
STRAND 1 21 Jan 05:02:12 05:04:50 14° 61° (ENE) 05:07:29 437.568
AIST 2 21 Jan 05:05:20 05:08:44 24° 248° (WSW) 05:12:06 435.215
GONETS M04 21 Jan 05:06:16 05:12:24 20° 64° (ENE) 05:18:30
CUTE-I 21 Jan 05:10:59 05:14:46 19° 93° (E) 05:18:32 437.470
STARS 21 Jan 05:16:56 05:18:59 13° 268° (W) 05:21:01 437.465
HORYU 2 21 Jan 05:24:12 05:28:40 73° 103° (ESE) 05:33:07 437.375
Cosmos 2499 21 Jan 05:25:21 05:31:14 27° 70° (ENE) 05:37:01 435.465 / 435.565
DOVE 4 21 Jan 05:35:27 05:39:06 29° 96° (E) 05:42:43 437.250
O/OREOS (USA 219) 21 Jan 05:39:03 05:43:24 52° 107° (ESE) 05:47:45 437.305
AO-7 21 Jan 05:46:30 05:52:14 21° 308° (NW) 05:57:56 29.400- 29.500
LilacSat-2 21 Jan 05:47:02 05:50:48 48° 99° (E) 05:54:33 437.200
Cubesat XI-IV 21 Jan 05:53:23 05:58:33 48° 100° (E) 06:03:42 437.490
NOAA 15 21 Jan 05:59:41 06:04:57 58° 101° (ESE) 06:10:09 137.62
RS-15 21 Jan 06:01:16 06:11:45 30° 30° (NNE) 06:21:59 29.354- 29.394
NOAA 18 21 Jan 06:03:58 06:08:49 32° 97° (E) 06:13:39 137.9125
PHONESAT 2.4 21 Jan 06:10:55 06:12:31 17° 207° (SSW) 06:14:07 2401.200-2431.200
CUTE 1.7 + AOD 2 21 Jan 06:29:48 06:32:13 15° 92° (E) 06:34:35 437.475
SO-50 21 Jan 06:31:31 06:35:18 24° 112° (ESE) 06:39:04 436.795
HO-68 21 Jan 06:34:26 06:40:13 26° 94° (E) 06:45:56 435.675
STRAND 1 21 Jan 06:38:19 06:43:23 71° 258° (WSW) 06:48:29 437.568
GOMX 1 21 Jan 06:38:40 06:41:52 20° 294° (WNW) 06:44:58 467.674
CUTE-I 21 Jan 06:49:54 06:55:04 51° 289° (WNW) 07:00:13 437.470
CANX-2 21 Jan 06:57:56 07:01:55 35° 97° (E) 07:05:51 2200.000
CINEMA 3 21 Jan 06:58:00 07:02:08 56° 101° (E) 07:06:23 145.822/145.860
GONETS M04 21 Jan 07:01:28 07:10:21 85° 265° (W) 07:19:12
HORYU 2 21 Jan 07:03:18 07:04:35 11° 298° (WNW) 07:05:51 437.375
SEEDS 21 Jan 07:07:36 07:11:11 26° 95° (E) 07:14:43 437.485
COMPASS 1 21 Jan 07:11:54 07:14:53 19° 93° (E) 07:17:50 437.405
DOVE 4 21 Jan 07:13:31 07:16:39 21° 292° (WNW) 07:19:44 437.250
Cosmos 2499 21 Jan 07:17:51 07:24:38 49° 269° (W) 07:31:22 435.465 / 435.565
O/OREOS (USA 219) 21 Jan 07:20:25 07:23:08 16° 305° (NW) 07:25:50 437.305
AAUSAT CUBESAT 2 21 Jan 07:22:22 07:25:19 18° 93° (E) 07:28:14 437.432
LilacSat-2 21 Jan 07:23:05 07:24:39 12° 295° (WNW) 07:26:13 437.200
Cubesat XI-IV 21 Jan 07:34:17 07:38:16 22° 296° (WNW) 07:42:15 437.490
NOAA 15 21 Jan 07:40:40 07:44:13 18° 298° (WNW) 07:47:44 137.62
NOAA 18 21 Jan 07:44:36 07:49:25 33° 293° (WNW) 07:54:12 137.9125
CUBEBUG 2 21 Jan 07:47:09 07:51:21 45° 99° (E) 07:55:39 437.445
PRISM 21 Jan 07:51:25 07:55:11 34° 71° (ENE) 07:58:58 437.425
PCSat 21 Jan 07:54:59 07:58:10 16° 43° (NE) 08:01:21 145.827
CUTE 1.7 + AOD 2 21 Jan 08:04:08 08:08:16 45° 287° (WNW) 08:12:21 437.475
FUNcube-1 21 Jan 08:07:22 08:11:04 26° 96° (E) 08:14:50 145.935
SO-50 21 Jan 08:11:10 08:15:35 38° 308° (NW) 08:19:57 436.795
UWE-3 21 Jan 08:13:43 08:18:02 57° 101° (E) 08:22:27 435.000/436.395/437.385
RS-15 21 Jan 08:14:05 08:26:32 81° 57° (ENE) 08:38:27 29.354- 29.394
HO-68 21 Jan 08:21:16 08:28:17 58° 291° (WNW) 08:35:15 435.675
ZACube-1 21 Jan 08:30:31 08:34:50 52° 100° (E) 08:39:12 437.345
UNISAT 6 21 Jan 08:31:09 08:34:45 27° 69° (ENE) 08:38:21 437.425
DELFI C3 21 Jan 08:32:38 08:34:33 13° 92° (E) 08:36:27 145.870
CANX-2 21 Jan 08:34:25 08:37:29 19° 293° (WNW) 08:40:33 2200.000
CINEMA 3 21 Jan 08:37:05 08:38:50 12° 295° (WNW) 08:40:36 145.822/145.860
JAS-2 21 Jan 08:41:12 08:44:23 16° 58° (ENE) 08:47:42 435.910
SEEDS 21 Jan 08:43:15 08:46:46 25° 291° (WNW) 08:50:15 437.485
TIGRISAT 21 Jan 08:43:55 08:47:46 35° 71° (ENE) 08:51:38 435.000
COMPASS 1 21 Jan 08:46:41 08:50:30 34° 289° (WNW) 08:54:16 437.405
AAUSAT CUBESAT 2 21 Jan 08:57:04 09:00:50 34° 289° (WNW) 09:04:36 437.432
ANTELSAT 21 Jan 08:59:02 09:03:11 56° 74° (ENE) 09:07:21 437.575/2403.000
GONETS M04 21 Jan 09:01:04 09:05:44 16° 284° (WNW) 09:10:24
Oscar 11 21 Jan 09:05:19 09:09:41 77° 285° (WNW) 09:14:02 145.826/435.025
CUBEBUG 2 21 Jan 09:24:55 09:27:37 16° 294° (WNW) 09:30:22 437.445
PRISM 21 Jan 09:27:37 09:30:33 18° 266° (W) 09:33:29 437.425
PCSat 21 Jan 09:36:53 09:42:21 90° 76° (ENE) 09:47:46 145.827
FUNcube-1 21 Jan 09:43:31 09:47:14 27° 290° (WNW) 09:51:00 145.935
QB50P1 21 Jan 09:48:07 09:51:01 18° 67° (ENE) 09:53:55 145.935-145.965
UWE-3 21 Jan 09:51:51 09:54:02 14° 295° (WNW) 09:56:14 435.000/436.395/437.385
POLYITAN 1 21 Jan 09:52:21 09:55:27 21° 67° (ENE) 09:58:34 437.675
QB50P2 21 Jan 09:53:26 09:56:42 23° 68° (ENE) 10:00:00 145.880/145.840
DELFI C3 21 Jan 10:05:46 10:09:34 43° 287° (WNW) 10:13:19 145.870
UNISAT 6 21 Jan 10:08:00 10:11:26 23° 265° (W) 10:14:52 437.425
ZACube-1 21 Jan 10:08:14 10:10:41 15° 295° (WNW) 10:13:10 437.345
HUMSAT D 21 Jan 10:09:09 10:13:26 80° 286° (WNW) 10:17:45 437.325/437.525
HO-68 21 Jan 10:13:00 10:14:30 11° 311° (NW) 10:16:00 435.675
POPSAT HIP 1 21 Jan 10:14:05 10:17:53 34° 71° (ENE) 10:21:41 437.405
BY70-1 21 Jan 10:20:43 10:23:29 25° 96° (E) 10:26:05 436.1900
TIGRISAT 21 Jan 10:21:37 10:24:33 18° 266° (W) 10:27:30 435.000
JAS-2 21 Jan 10:23:22 10:28:39 70° 258° (WSW) 10:34:29 435.910
DUCHIFAT 1 21 Jan 10:23:35 10:27:27 38° 71° (ENE) 10:31:18 145.980
RS-15 21 Jan 10:28:09 10:37:37 28° 259° (W) 10:46:51 29.354- 29.394
NANOSAT C BR1 21 Jan 10:29:27 10:33:29 49° 73° (ENE) 10:37:31 145.865
CUBEBUG 1 21 Jan 10:33:58 10:35:45 12° 91° (E) 10:37:33 437.445
ANTELSAT 21 Jan 10:38:53 10:40:15 11° 269° (W) 10:41:37 437.575/2403.000
AISAT 21 Jan 10:52:48 10:54:49 13° 91° (E) 10:56:50 437.250
BUGSAT 1 21 Jan 10:54:31 10:58:03 29° 70° (ENE) 11:01:33 437.445
Oscar 19 21 Jan 11:10:44 11:13:46 16° 62° (ENE) 11:16:48 437.125/150
ESTCUBE 1 21 Jan 11:17:15 11:21:48 70° 102° (ESE) 11:26:17 437.505/2401.250
Cosmos 2491 21 Jan 11:17:58 11:24:02 20° 64° (ENE) 11:30:03 435.465 / 435.565
QB50P1 21 Jan 11:22:40 11:26:31 35° 262° (W) 11:30:23 145.935-145.965
PCSat 21 Jan 11:23:34 11:24:53 11° 258° (WSW) 11:26:12 145.827
VELOX 1 21 Jan 11:24:39 11:28:27 28° 96° (E) 11:32:13 145.980
POLYITAN 1 21 Jan 11:27:18 11:31:02 31° 263° (W) 11:34:47 437.675
QB50P2 21 Jan 11:28:42 11:32:21 28° 264° (W) 11:36:00 145.880/145.840
Gurwin Techsat 1B 21 Jan 11:33:24 11:36:04 14° 60° (ENE) 11:38:44 435.225
